Weather History for St. John's, NL

Change the Weather History Date:

Friday, July 26, 2013

  Actual Average Record
Temperature  
Mean Temperature 76 °F -  
Max Temperature 83 °F 67 °F 83 °F (2013)
Min Temperature 68 °F 52 °F 44 °F (2002)
Cooling Degree Days 10    
Growing Degree Days 26 (Base 50)    
Moisture  
Dew Point 69 °F    
Average Humidity 88    
Maximum Humidity 100    
Minimum Humidity 57    
Precipitation  
Precipitation 0.00 in 0.15 in - ()
Sea Level Pressure  
Sea Level Pressure 30.33 in    
Wind  
Wind Speed 14 mph ()    
Max Wind Speed 23 mph    
Max Gust Speed 33 mph    
Visibility 14.9 miles    
Events      
Averages and records for this station are not official NWS values.
T = Trace of Precipitation, MM = Missing Value Source: Averaged Metar Reports

Daily Weather History Graph

Daily Weather History Graph

Search for Another Location

Airport:

Trip Planner

Search our weather history database for the weather conditions in past years. The results will help you decide how hot, cold, wet, or windy it might be!

Date:

Astronomy

Jul. 26, 2013 Rise Set
Actual Time 5:31 AM NDT 8:43 PM NDT
Civil Twilight 4:54 AM NDT 9:19 PM NDT
Nautical Twilight 4:05 AM NDT 10:07 PM NDT
Astronomical Twilight 3:04 AM NDT 11:08 PM NDT
Moon 10:27 PM NDT (7/26) 10:24 AM NDT (7/26)
Length of Visible Light 16h 25m
Length of Day
15h 11m
Waning Gibbous, 81% of the Moon is Illuminated
Jul 26
Waning Gibbous
Jul 29
Last Quarter
Aug 6
New
Aug 14
First Quarter
Aug 20
Full

Hourly Weather History & Observations

Time (NDT) Temp. Heat Index Dew Point Humidity Pressure Visibility Wind Dir Wind Speed Gust Speed Precip Events Conditions
12:30 AM 71.6 °F - 71.6 °F 100% 30.31 in 15.0 mi SW 15.0 mph 23.0 mph N/A   Mostly Cloudy
1:30 AM 71.6 °F - 71.6 °F 100% 30.30 in 15.0 mi SW 17.3 mph - N/A   Mostly Cloudy
2:30 AM 71.6 °F - 71.6 °F 100% 30.30 in 15.0 mi SW 18.4 mph 25.3 mph N/A   Partly Cloudy
3:30 AM 72 °F - 71 °F 95% 30.30 in 15 mi SW 15.0 mph - -   Partly Cloudy
3:30 AM 71.6 °F - 71.6 °F 100% 30.30 in 15.0 mi SW 18.4 mph 25.3 mph N/A   Scattered Clouds
3:46 AM 71.6 °F - 71.6 °F 100% 30.30 in 15.0 mi SW 13.8 mph 25.3 mph N/A   Mostly Cloudy
4:30 AM 71.6 °F - 69.8 °F 94% 30.29 in 15.0 mi WSW 16.1 mph 27.6 mph N/A   Overcast
5:04 AM 71.6 °F - 69.8 °F 94% 30.30 in 12.0 mi WSW 20.7 mph 31.1 mph N/A   Light Drizzle
5:30 AM 69.8 °F - 69.8 °F 100% 30.30 in 15.0 mi WSW 18.4 mph 26.5 mph N/A   Overcast
6:07 AM 69.8 °F - 69.8 °F 100% 30.30 in 15.0 mi WSW 20.7 mph 31.1 mph N/A   Scattered Clouds
6:30 AM 71.6 °F - 68.0 °F 88% 30.30 in 15.0 mi WSW 19.6 mph - N/A   Scattered Clouds
7:30 AM 71.6 °F - 66.2 °F 83% 30.31 in 15.0 mi WSW 23.0 mph 33.4 mph N/A   Scattered Clouds
8:30 AM 69.8 °F - 68.0 °F 94% 30.33 in 15.0 mi West 20.7 mph 28.8 mph N/A   Mostly Cloudy
9:30 AM 72 °F - 67 °F 81% 30.35 in 15 mi West 21.9 mph - -   Scattered Clouds
9:30 AM 71.6 °F - 68.0 °F 88% 30.35 in 15.0 mi West 20.7 mph 29.9 mph N/A   Mostly Cloudy
10:30 AM 73.4 °F - 66.2 °F 78% 30.35 in 15.0 mi West 23.0 mph 29.9 mph N/A   Mostly Cloudy
11:30 AM 77.0 °F - 68.0 °F 74% 30.35 in 15.0 mi West 19.6 mph 28.8 mph N/A   Mostly Cloudy
12:30 PM 78.8 °F - 68.0 °F 69% 30.36 in 15.0 mi West 16.1 mph - N/A   Mostly Cloudy
1:30 PM 80.6 °F 83.9 °F 69.8 °F 70% 30.37 in 15.0 mi WNW 13.8 mph 23.0 mph N/A   Scattered Clouds
2:30 PM 82.4 °F 86.3 °F 69.8 °F 66% 30.37 in 15.0 mi West 10.4 mph 18.4 mph N/A   Scattered Clouds
3:30 PM 83 °F - 70 °F 57% 30.36 in 15 mi WNW 11.5 mph - -   Partly Cloudy
3:30 PM 82.4 °F 86.3 °F 69.8 °F 66% 30.36 in 15.0 mi WNW 11.5 mph - N/A   Mostly Cloudy
4:30 PM 69.8 °F - 66.2 °F 88% 30.37 in 15.0 mi East 11.5 mph - N/A   Mostly Cloudy
5:30 PM 71.6 °F - 66.2 °F 83% 30.37 in 15.0 mi ESE 8.1 mph - N/A   Mostly Cloudy
6:30 PM 71.6 °F - 66.2 °F 83% 30.36 in 15.0 mi SE 6.9 mph - N/A   Scattered Clouds
7:30 PM 69.8 °F - 66.2 °F 88% 30.35 in 15.0 mi East 3.5 mph - N/A   Scattered Clouds
8:30 PM 68.0 °F - 64.4 °F 88% 30.34 in 15.0 mi ENE 3.5 mph - N/A   Partly Cloudy
9:30 PM 72 °F - 71 °F 94% 30.33 in 15 mi SW 10.4 mph - -   Scattered Clouds
9:30 PM 73.4 °F - 71.6 °F 94% 30.33 in 15.0 mi SW 10.4 mph - N/A   Partly Cloudy
10:30 PM 71.6 °F - 71.6 °F 100% 30.32 in 15.0 mi SW 9.2 mph - N/A   Mostly Cloudy
11:30 PM 73.4 °F - 71.6 °F 94% 30.31 in 15.0 mi WSW 9.2 mph - N/A   Mostly Cloudy
11:57 PM 71.6 °F - 71.6 °F 100% 30.30 in 15.0 mi SW 6.9 mph - N/A   Scattered Clouds